Showing default

SPAINSAT NG1, 62852

Orbit data source: Space-Track

SPAINSAT NG1, 62852 is a payload satellite owned by Hisdesat (ES) in GEO that was launched on Thu, 30 Jan 2025 UTC via an FALCON 9 launch vehicle from the Air Force Eastern Test Range (AFETR). Payload-class satellites include a variety of spacecraft equipped with specific instruments for various scientific and technological missions. These include communications satellites like Starlink; space stations such as the ISS; scientific satellites like the Hubble; Earth observation satellites from companies like Planet Labs, Umbra, and HawkEye 360; GPS; miniature CubeSats for education and research; and military/defense satellites.

Not visible in the next 10 days
Identifier
62852, 2025-021A
Orbit
GEO
Country
Flag of ESES / SPN
Related business
Manufacturer
ADST/ADSUK
Mission
Operational Defense Communications
Bus & Motor
EUROSTAR NEO, PPS-5000
Mass
6,100 kg wet, ~5,500 kg dry
Launch date (UTC)
2025-01-30 (9 months ago)
Launch vehicle
FALCON 9
Launch site
Air Force Eastern Test Range (AFETR)
Object type
Payload
Rocket body
Debris
Shape & HBR
Box + 2 Pan, 21.4 m
Radar Cross Section
50.755 m², Large (>1 m²)

Expand to show TLE details & history
Last TLE update: 19 hours ago

TLE from 19 hours ago
0 SPAINSAT NG1
1 62852U 25021A   25300.90788925  .00000167  00000-0  00000-0 0  9995
2 62852   0.1677  86.6655 0001853 190.6702 119.3207  1.00306834  1654
Epoch: 2025-10-27T21:47Z
TLE epoch observation values (Epoch: 2025-10-27T21:47:21.631Z)
Latitude
-0.1185°
Longitude
33.29634°
Altitude
35,780.112 km
Speed
3.075 km/s
True Right ascension
02h 26m 33s
True Declination
0° 07' 06"
Sunlit
Object was in daylight at epoch
Visualization orbit readout
Latitude
Unknown
Longitude
Unknown
Altitude
Unknown
Speed
Unknown
Apparent Right ascension
Unknown
Apparent Declination
Unknown
Sunlit
N/A
Visualization observer readout
Local Sidereal Time
12:23:18
Azimuth
Unknown
Elevation
Unknown
Doppler factor
Unknown
Orbital elements
Apogee altitude
35,785.654 km
Perigee altitude
35,770.031 km
Semi-major axis
42,155.98 km
Eccentricity
0.00019
Inclination
0.1677°
RAAN
86.6655°
Arg. of periapsis
190.6702°
True anomaly
119.33921°
Mean anomaly
119.3207°
Eccentric anomaly
119.32996°
Mean motion
0.25076 °/min
Orbital period
1,435.65 mins
BSTAR
0
Loading maneuver chart data...
Computing Atmospheric mass density...
Loading historical data...
Loading historical data...
Loading historical data...
Loading historical data...
Loading historical data...
Loading historical data...
Loading historical data...
Other satellites on launch #21 in the year 2025 (2025-01-30 UTC)

Documentation

Showing up to 5 results
|